Regional Weather Roundup
Issued by NWS Cleveland, OH

Home | Current Version | Previous Version | Graphics & Text | Print | Product List | Glossary On
Versions: 1 2 3 4 5 6 7 8 9 10 11 12 13 14 15 16 17 18 19 20 21 22 23 24 25 26 27 28 29 30 31 32 33 34 35 36 37 38 39 40 41 42 43 44 45 46 47 48 49 50
000
ASUS41 KCLE 212010
RWRCLE
OHIO REGIONAL WEATHER ROUNDUP
NATIONAL WEATHER SERVICE WILMINGTON, OH
400 PM EDT SUN SEP 21 2014

NOTE: "FAIR" INDICATES FEW OR NO CLOUDS BELOW 12,000 FEET WITH NO
SIGNIFICANT WEATHER AND/OR OBSTRUCTIONS TO VISIBILITY.

OHZ001>008-015>018-024>027-034-035-043-044-212100-
   NORTHWEST OHIO

CITY           SKY/WX    TMP DP  RH WIND       PRES   REMARKS
DEFIANCE       PTSUNNY  N/A N/A N/A W12G24    29.82R
FINDLAY        CLOUDY    66  48  52 W24G32    29.79R
TOLEDO EXPRESS CLOUDY    63  52  67 W22G28    29.77R
TOLEDO METCALF CLOUDY    64  50  60 W23G32    29.77R
LIMA           PTSUNNY   68  49  50 W21G33    29.83R
$$

OHZ009>014-019>023-028>033-038-089-212100-
   NORTHEAST OHIO

CITY           SKY/WX    TMP DP  RH WIND       PRES   REMARKS
CLE-HOPKINS    PTSUNNY   69  52  54 W14G24    29.73R
CLE-LAKEFRONT  PTSUNNY   67  54  63 W23G31    29.69R
CUY CO. ARPT   PTSUNNY   70  57  64 W17G29    29.71R
LORAIN-ELYRIA  CLOUDY    70  51  51 NW17G26   29.73R
ASHTABULA      MOSUNNY   69  55  60 W23G32    29.69R
AKRON-CANTON   MOSUNNY   76  47  35 W20G29    29.70R
WOOSTER        PTSUNNY   74  49  41 W21G36    29.73R
MANSFIELD      PTSUNNY   70  47  43 W17G33    29.76R
YOUNGSTOWN     MOSUNNY   75  49  39 W15G31    29.66S
$$

OHZ042-051>053-060>062-070>072-077>081-212100-
  SOUTHWEST OHIO

CITY           SKY/WX    TMP DP  RH WIND       PRES   REMARKS
CINC-COVINGTON MOSUNNY   77  47  34 NW18G28   29.86S
CINC-LUNKEN    SUNNY     78  46  32 W14G25    29.85S
HAMILTON       MOSUNNY   78  48  34 W13G30    29.86R
DAYTON         MOSUNNY   72  49  44 NW26G33   29.86R
WRIGHT-PAT AFB MOSUNNY   73  47  39 W25       29.83R
DAYTON GENERAL MOSUNNY   75  45  34 NW21G30   29.84R
WILMINGTON     SUNNY     75  43  31 NW23G32   29.82S
$$

OHZ036-037-039>041-045>050-054>059-063>069-073>076-082>088-212100-
  CENTRAL AND SOUTHEAST OHIO

CITY           SKY/WX    TMP DP  RH WIND       PRES   REMARKS
COLUMBUS       MOSUNNY   80  40  23 W28G39    29.77R
OSU AIRPORT    MOSUNNY   73  44  35 W24G32    29.78R
BOLTON FIELD   MOSUNNY   75  46  35 W21G28    29.80R
RICKENBACK AFB SUNNY     78  43  29 W21G33    29.78R
NEWARK         SUNNY     78  45  30 W22       29.75S
MARION         PTSUNNY   69  47  45 W23G30    29.79R
LANCASTER      SUNNY     78  45  30 W15G28    29.78R
ZANESVILLE     SUNNY     79  36  21 W22G31    29.73R
NEW PHILLY     SUNNY     79  44  28 W15G25    29.71R
$$


USA.gov is the U.S. government's official web portal to all federal, state and local government web resources and services.